C/2004 K3 ( LINEAR )

Japanese version
Home page
Updated on September 29, 2004

---------------------------------------------------------------------

* Profile

Discovery Date May 29, 2004
Magnitude 19.3 mag
Discoverer Lincoln Laboratory Near-Earth Asteroid Research project

* Pictures

* Orbital Elements

T 2004 June 30.4548 TT                                  MPC
q   1.103364             (2000.0)            P               Q
z  +0.017153       Peri.   60.4899      -0.2759515      -0.2670774
                   Node   275.5378      -0.7997238      +0.5966830
e   0.981074       Incl.  111.9286      +0.5331910      +0.7567292
>From 78 observations 2004 May 29-July 6.

* Finding Charts

* Magnitudes Graph

        m1 = 14.5 + 5 log d + 40 log r(t - 15)  [  ,15]  (             - 2004 July 15)
        m1 = 15.7 + 5 log d + 10 log r          [15,  ]  (2004 July 15 -             )

        * Gray curve is:  m1 = 15.7 + 5 log d + 10 log r

---------------------------------------------------------------------

The orbital elements are published on M.P.E.C. 2004-N36.
The charts are made with StellaNavigator Ver.2.0 for Windows (AstroArts / ASCII).
The magnitudes graphs are made with Comet for Windows.

---------------------------------------------------------------------

Copyright(C) Seiichi Yoshida (comet@aerith.net). All rights reserved.